Location: Bayshore Village Mobile Home Park
(26.6945°N, 81.8642°W)
Time: 15:17:28
(UTC+00:00)

Cosmos 1805 Rocket - Pass Details

Date: 17 June 2021
Orbit: 606 x 629 km, 82.5° (Epoch: 26 July)

Event Time Altitude Azimuth Distance (km) Brightness Sun altitude
Exits shadow 09:17:19 - 172° (S) 2,350 6.2 -15.4°
Reaches altitude 10° 09:18:19 10° 170° (S) 1,955 5.9 -15.2°
Maximum altitude 09:22:31 54° 93° (E) 747 4.2 -14.5°
Drops below altitude 10° 09:26:48 10° 16° (NNE) 1,978 6.9 -13.7°
Sets 09:29:04 0° 12° (NNE) 2,890 7.8 -13.3°
